Location: Unspecified
(40.4667°N, 0.0000°E)
Time: 03:38:08
(UTC+00:00)

ISS - Pass Details

Date: 22 May 2019
Orbit: 408 x 418 km, 51.6° (Epoch: 18 June)

Event Time Altitude Azimuth Distance (km) Brightness Sun altitude
Rises 20:33:49 0° 268° (W) 2,344 0.8 -13.0°
Reaches altitude 10° 20:36:12 10° 284° (WNW) 1,487 0.0 -13.3°
Maximum altitude 20:38:54 22° 338° (NNW) 959 -1.1 -13.7°
Drops below altitude 10° 20:41:37 10° 32° (NNE) 1,497 -0.8 -14.1°
Sets 20:44:01 0° 48° (NE) 2,365 0.0 -14.4°
